Time_in_sec,gx,gy,gz
1314890028.25932121,0.18101142,-0.12418641,-0.97560884
1314890028.30733275,0.18166285,-0.12483345,-0.97540516
1314890028.36018372,0.18158380,-0.12471586,-0.97543492
1314890028.41132212,0.18165553,-0.12481732,-0.97540858
1314890028.46025372,0.18153003,-0.12509641,-0.97539620
1314890028.50735092,0.18148244,-0.12515779,-0.97539718
1314890028.55921721,0.18147935,-0.12483316,-0.97543935
1314890028.60735345,0.18125235,-0.12478962,-0.97548713
1314890028.65618491,0.18152134,-0.12486768,-0.97542712
1314890028.70723104,0.18146115,-0.12487816,-0.97543698
1314890028.75937009,0.18136886,-0.12485885,-0.97545661
1314890028.80731821,0.18131729,-0.12492981,-0.97545711
1314890028.85924244,0.18146697,-0.12466960,-0.97546257
1314890028.90720224,0.18138435,-0.12504168,-0.97543031
1314890028.95594954,0.18124000,-0.12498732,-0.97546411
1314890029.00792027,0.18107455,-0.12488559,-0.97550787
1314890029.05598783,0.18142580,-0.12511957,-0.97541262
1314890029.10824919,0.18145824,-0.12501733,-0.97541969
1314890029.15664911,0.18181899,-0.12509451,-0.97534262
1314890029.20789170,0.18183015,-0.12511501,-0.97533791
1314890029.25934672,0.18158969,-0.12513553,-0.97538007
1314890029.30779076,0.18167063,-0.12509827,-0.97536978
1314890029.35588503,0.18157263,-0.12515245,-0.97538108
1314890029.41131210,0.18153434,-0.12520982,-0.97538084
1314890029.46025443,0.18145862,-0.12523569,-0.97539161
1314890029.50774789,0.18133416,-0.12524883,-0.97541307
1314890029.55575681,0.18199863,-0.12546586,-0.97526141
1314890029.60841823,0.18187660,-0.12542129,-0.97528991
1314890029.65561438,0.18175953,-0.12536958,-0.97531838
1314890029.70759249,0.18163420,-0.12547415,-0.97532828
1314890029.75559640,0.18174814,-0.12537717,-0.97531953
1314890029.80761623,0.18239744,-0.12570407,-0.97515622
1314890029.85632992,0.18258500,-0.12568391,-0.97512372
1314890029.90765691,0.18260314,-0.12571368,-0.97511649
1314890029.96033216,0.18266822,-0.12551750,-0.97512957
1314890030.00765038,0.18261265,-0.12562167,-0.97512656
1314890030.06032896,0.18288617,-0.12568742,-0.97506683
1314890030.10729074,0.18277509,-0.12579040,-0.97507438
1314890030.16028881,0.18279761,-0.12564118,-0.97508940
1314890030.20749402,0.18296707,-0.12554146,-0.97507046
1314890030.25936317,0.18313318,-0.12555852,-0.97503707
1314890030.30826473,0.18312479,-0.12571294,-0.97501875
1314890030.35753083,0.18318852,-0.12589103,-0.97498380
1314890030.40776515,0.18323307,-0.12557861,-0.97501572
1314890030.45548630,0.18340357,-0.12580451,-0.97495454
1314890030.50738978,0.18351761,-0.12561808,-0.97495712
1314890030.55532050,0.18365921,-0.12587419,-0.97489742
1314890030.60844302,0.18386237,-0.12587784,-0.97485866
1314890030.65538049,0.18388586,-0.12572577,-0.97487385
1314890030.70722055,0.18382387,-0.12579372,-0.97487678
1314890030.75531816,0.18392281,-0.12590113,-0.97484425
1314890030.80836868,0.18394894,-0.12603415,-0.97482213
1314890030.85532022,0.18416307,-0.12614829,-0.97476693
1314890030.90720034,0.18420899,-0.12606367,-0.97476920
1314890030.96045256,0.18423550,-0.12605862,-0.97476485
1314890031.00731730,0.18419015,-0.12585079,-0.97480027
1314890031.05623627,0.18460577,-0.12586125,-0.97472030
1314890031.10822535,0.18461754,-0.12586787,-0.97471721
1314890031.15681696,0.18464317,-0.12570574,-0.97473328
1314890031.20719314,0.18450726,-0.12578748,-0.97474847
1314890031.25968647,0.18457330,-0.12575161,-0.97474060
1314890031.30719733,0.18486452,-0.12587060,-0.97467005
1314890031.36036277,0.18489126,-0.12592189,-0.97465835
1314890031.40723538,0.18511448,-0.12555884,-0.97466282
1314890031.45637345,0.18513499,-0.12530853,-0.97469114
1314890031.50727367,0.18511722,-0.12527615,-0.97469867
1314890031.56033707,0.18529214,-0.12541838,-0.97464714
1314890031.60822153,0.18508999,-0.12544167,-0.97468256
1314890031.65925121,0.18490101,-0.12532699,-0.97473317
1314890031.70749903,0.18473858,-0.12537983,-0.97475718
1314890031.75923085,0.18475291,-0.12551125,-0.97473755
1314890031.80732560,0.18488237,-0.12543370,-0.97472298
1314890031.85605431,0.18483497,-0.12547995,-0.97472602
1314890031.90770555,0.18486952,-0.12539575,-0.97473030
1314890031.95603061,0.18481446,-0.12536985,-0.97474408
1314890032.00822997,0.18462167,-0.12545790,-0.97476928
1314890032.05634928,0.18506945,-0.12570034,-0.97465313
1314890032.10733151,0.18525440,-0.12570064,-0.97461795
1314890032.15598822,0.18539813,-0.12552646,-0.97461307
1314890032.20723510,0.18546129,-0.12543740,-0.97461252
1314890032.26024723,0.18539236,-0.12543326,-0.97462617
1314890032.30781841,0.18544519,-0.12576712,-0.97457309
1314890032.35634589,0.18527343,-0.12558394,-0.97462938
1314890032.40733552,0.18515013,-0.12568843,-0.97463934
1314890032.45638871,0.18509370,-0.12585927,-0.97462801
1314890032.50733209,0.18501374,-0.12574710,-0.97465767
1314890032.55632472,0.18470940,-0.12572658,-0.97471804
1314890032.60845017,0.18489456,-0.12566775,-0.97469052
1314890032.65963602,0.18520621,-0.12562489,-0.97463688
1314890032.70838666,0.18505387,-0.12562500,-0.97466580
1314890032.75565457,0.18489954,-0.12571020,-0.97468411
1314890032.80731630,0.18485422,-0.12569336,-0.97469487
1314890032.85564017,0.18475209,-0.12563461,-0.97472181
1314890032.90833998,0.18466921,-0.12551406,-0.97475305
1314890032.95635104,0.18469069,-0.12560568,-0.97473718
1314890033.00721598,0.18457226,-0.12528283,-0.97480116
1314890033.05634809,0.18498741,-0.12552441,-0.97469138
1314890033.10731530,0.18496081,-0.12547257,-0.97470310
1314890033.15563107,0.18490140,-0.12549220,-0.97471185
1314890033.20825124,0.18471065,-0.12536725,-0.97476409
1314890033.25634837,0.18486185,-0.12535063,-0.97473756
1314890033.30832529,0.18486145,-0.12551356,-0.97471667
1314890033.36032963,0.18487648,-0.12531819,-0.97473896
1314890033.40835142,0.18482697,-0.12539721,-0.97473819
1314890033.45550132,0.18481089,-0.12539479,-0.97474155
1314890033.50736475,0.18465466,-0.12514397,-0.97480339
1314890033.55549574,0.18469664,-0.12551058,-0.97474830
1314890033.60935760,0.18477009,-0.12530399,-0.97476096
1314890033.65533066,0.18473740,-0.12539579,-0.97475535
1314890033.70832515,0.18472102,-0.12531295,-0.97476910
1314890033.75530958,0.18449816,-0.12522983,-0.97482199
1314890033.80827188,0.18452326,-0.12551651,-0.97478037
1314890033.85743594,0.18455953,-0.12542575,-0.97478519
1314890033.90832996,0.18439147,-0.12567063,-0.97478545
1314890033.95980239,0.18432053,-0.12547147,-0.97482452
1314890034.00823855,0.18430857,-0.12541716,-0.97483377
1314890034.05935311,0.18382502,-0.12593920,-0.97485777
1314890034.10631275,0.18363267,-0.12595653,-0.97489179
1314890034.15624452,0.18368438,-0.12603923,-0.97487136
1314890034.20656228,0.18381296,-0.12575599,-0.97488370
1314890034.25622749,0.18384046,-0.12594104,-0.97485463
1314890034.30725265,0.18357500,-0.12611747,-0.97488184
1314890034.35623670,0.18362012,-0.12602422,-0.97488540
1314890034.40825915,0.18328548,-0.12603276,-0.97494727
1314890034.45608711,0.18338891,-0.12599834,-0.97493227
1314890034.49598885,0.18346588,-0.12598535,-0.97491946
1314890034.55607224,0.18359154,-0.12606147,-0.97488597
1314890034.61062384,0.18386330,-0.12591271,-0.97485398
1314890034.65593863,0.18395195,-0.12565935,-0.97486994
1314890034.70720577,0.18378804,-0.12537358,-0.97493765
1314890034.75925136,0.18370514,-0.12549998,-0.97493701
1314890034.80731559,0.18355258,-0.12576084,-0.97493213
1314890034.86032939,0.18365782,-0.12581054,-0.97490590
1314890034.90801597,0.18354609,-0.12563674,-0.97494935
1314890034.95633364,0.18365271,-0.12554841,-0.97494065
1314890035.00727057,0.18377037,-0.12542263,-0.97493467
1314890035.05932975,0.18333210,-0.12544195,-0.97501470
1314890035.10720491,0.18342523,-0.12530924,-0.97501425
1314890035.15924287,0.18360564,-0.12524265,-0.97498885
1314890035.20720196,0.18376684,-0.12507152,-0.97498044
1314890035.25571918,0.18372217,-0.12514715,-0.97497916
1314890035.30731726,0.18437127,-0.12543600,-0.97481949
1314890035.35581088,0.18451535,-0.12523697,-0.97481782
1314890035.40833664,0.18458319,-0.12530238,-0.97479657
1314890035.45636225,0.18453822,-0.12519302,-0.97481914
1314890035.50734186,0.18471453,-0.12531608,-0.97476993
1314890035.55931973,0.18489197,-0.12547617,-0.97471570
1314890035.60843420,0.18478235,-0.12572990,-0.97470379
1314890035.65634036,0.18486512,-0.12552758,-0.97471417
1314890035.70734000,0.18494901,-0.12547865,-0.97470456
1314890035.75629497,0.18492967,-0.12556249,-0.97469743
1314890035.80726504,0.18437143,-0.12527716,-0.97483989
1314890035.85633039,0.18422536,-0.12542846,-0.97484805
1314890035.90734982,0.18424423,-0.12526159,-0.97486594
1314890035.95633936,0.18416367,-0.12515335,-0.97489506
1314890036.00731945,0.18418144,-0.12520317,-0.97488531
1314890036.06033969,0.18389740,-0.12497730,-0.97496791
1314890036.10723257,0.18398629,-0.12495265,-0.97495430
1314890036.15934539,0.18384389,-0.12487488,-0.97499112
1314890036.20736599,0.18377061,-0.12498905,-0.97499031
1314890036.26036739,0.18375683,-0.12490928,-0.97500313
1314890036.30735326,0.18278760,-0.12485864,-0.97519178
1314890036.35635233,0.18276130,-0.12493932,-0.97518638
1314890036.40834379,0.18264361,-0.12483147,-0.97522224
1314890036.45636606,0.18247278,-0.12495410,-0.97523851
1314890036.50835347,0.18228471,-0.12506801,-0.97525908
1314890036.55636382,0.18183730,-0.12488801,-0.97536566
1314890036.60844064,0.18173662,-0.12494478,-0.97537716
1314890036.65624285,0.18157191,-0.12482932,-0.97542262
1314890036.71116614,0.18159316,-0.12486919,-0.97541356
1314890036.74737859,0.18149673,-0.12470005,-0.97545314
1314890036.80725694,0.18162040,-0.12470926,-0.97542895
1314890036.85933447,0.18142502,-0.12466014,-0.97547158
1314890036.90826845,0.18145130,-0.12461964,-0.97547187
1314890036.95924211,0.18141383,-0.12452702,-0.97549067
1314890037.00812387,0.18138367,-0.12431532,-0.97552328
1314890037.05924797,0.18118743,-0.12424627,-0.97556854
1314890037.10847664,0.18125869,-0.12427776,-0.97555129
1314890037.15814877,0.18138483,-0.12449877,-0.97549967
1314890037.20825624,0.18143788,-0.12454584,-0.97548379
1314890037.25814319,0.18163741,-0.12450357,-0.97545205
1314890037.30725312,0.18172214,-0.12457467,-0.97542720
1314890037.35810804,0.18175375,-0.12448829,-0.97543233
1314890037.40731382,0.18180656,-0.12444385,-0.97542816
1314890037.45933008,0.18164174,-0.12461688,-0.97543678
1314890037.50740361,0.18137442,-0.12453613,-0.97549683
1314890037.55930758,0.18128629,-0.12463257,-0.97550090
1314890037.61125350,0.18124256,-0.12459604,-0.97551369
1314890037.65612221,0.18116581,-0.12436968,-0.97555683
1314890037.70826507,0.18137309,-0.12416303,-0.97554464
1314890037.76025772,0.18160894,-0.12397072,-0.97552522
1314890037.80784345,0.18162775,-0.12404349,-0.97551247
1314890037.85623813,0.18149061,-0.12406298,-0.97553551
1314890037.90825558,0.18131200,-0.12389466,-0.97559012
1314890037.95596170,0.18134189,-0.12381703,-0.97559441
1314890038.00787425,0.18111310,-0.12348757,-0.97567867
1314890038.06024003,0.18105307,-0.12366793,-0.97566697
1314890038.10797095,0.18101719,-0.12353396,-0.97569060
1314890038.16032767,0.18111714,-0.12348805,-0.97567786
1314890038.20772266,0.18124973,-0.12373372,-0.97562211
1314890038.24733186,0.18113791,-0.12347446,-0.97567572
1314890038.30723810,0.18114748,-0.12354118,-0.97566550
1314890038.36034036,0.18133790,-0.12339559,-0.97564855
1314890038.40821147,0.18127760,-0.12340629,-0.97565840
1314890038.45930839,0.18135825,-0.12338558,-0.97564603
1314890038.50035572,0.18159990,-0.12354858,-0.97558046
1314890038.55937648,0.18138674,-0.12341655,-0.97563682
1314890038.60840917,0.18132213,-0.12302023,-0.97569888
1314890038.65936232,0.18119456,-0.12309522,-0.97571312
1314890038.71126533,0.18113017,-0.12305863,-0.97572969
1314890038.75559521,0.18096197,-0.12288182,-0.97578318
1314890038.80835223,0.18117259,-0.12313346,-0.97571238
1314890038.85936141,0.18114675,-0.12287180,-0.97575016
1314890038.90725160,0.18136145,-0.12296299,-0.97569879
1314890038.95627236,0.18124297,-0.12303027,-0.97571232
1314890039.00748229,0.18129136,-0.12304130,-0.97570194
1314890039.05635357,0.18129244,-0.12332080,-0.97566645
1314890039.10731792,0.18136449,-0.12331871,-0.97565333
1314890039.15934539,0.18122239,-0.12343080,-0.97566556
1314890039.20806551,0.18147532,-0.12340212,-0.97562217
1314890039.25092030,0.18152776,-0.12330787,-0.97562433
1314890039.30808282,0.18151681,-0.12326039,-0.97563237
1314890039.35639906,0.18124431,-0.12301048,-0.97571457
1314890039.40835667,0.18119046,-0.12300997,-0.97572464
1314890039.45637321,0.18086306,-0.12273005,-0.97582062
1314890039.50827575,0.18073541,-0.12277971,-0.97583803
1314890039.55635691,0.18061841,-0.12282229,-0.97585433
1314890039.60864258,0.18042742,-0.12278105,-0.97589485
1314890039.65701938,0.18010058,-0.12272403,-0.97596239
1314890039.70735693,0.18026670,-0.12268167,-0.97593705
1314890039.74729872,0.18021263,-0.12251396,-0.97596810
1314890039.80729842,0.18023149,-0.12233239,-0.97598739
1314890039.85529113,0.18001620,-0.12220797,-0.97604271
1314890039.90829325,0.17987556,-0.12211158,-0.97608071
1314890039.95774484,0.17990806,-0.12194165,-0.97609596
1314890040.00722265,0.17993581,-0.12192526,-0.97609289
1314890040.06176591,0.17945630,-0.12181651,-0.97619474
1314890040.10816407,0.17948545,-0.12197650,-0.97616941
1314890040.16211867,0.17962424,-0.12194986,-0.97614720
1314890040.20728421,0.17959377,-0.12199861,-0.97614672
1314890040.24939752,0.17951766,-0.12205404,-0.97615379
1314890040.30728102,0.17959833,-0.12198222,-0.97614793
1314890040.35932636,0.17945791,-0.12190165,-0.97618382
1314890040.40726829,0.17958511,-0.12162823,-0.97619453
1314890040.46177793,0.17952613,-0.12167067,-0.97620009
1314890040.49933505,0.17965772,-0.12161332,-0.97618303
1314890040.55614734,0.17983748,-0.12194277,-0.97610883
1314890040.60868073,0.18009972,-0.12181114,-0.97607691
1314890040.66025114,0.18018535,-0.12166638,-0.97607916
1314890040.70729089,0.18006914,-0.12163919,-0.97610400
1314890040.76023221,0.17999267,-0.12149703,-0.97613580
1314890040.80725765,0.17999579,-0.12142306,-0.97614444
1314890040.85930562,0.18008507,-0.12176978,-0.97608477
1314890040.90728092,0.18025954,-0.12157913,-0.97607634
1314890040.95926237,0.18041633,-0.12156381,-0.97604928
1314890041.00826907,0.18019784,-0.12130139,-0.97612228
1314890041.05923486,0.18056024,-0.12129856,-0.97605566
1314890041.10793614,0.18032653,-0.12117820,-0.97611382
1314890041.15930462,0.18020243,-0.12094481,-0.97616568
1314890041.20774770,0.18016204,-0.12125295,-0.97613491
1314890041.24742389,0.18007650,-0.12119878,-0.97615742
1314890041.30824423,0.18016644,-0.12125092,-0.97613435
1314890041.35633850,0.17966000,-0.12106948,-0.97625021
1314890041.40732908,0.17993913,-0.12087218,-0.97622325
1314890041.45634246,0.17987272,-0.12108849,-0.97620868
1314890041.50731659,0.17974287,-0.12111735,-0.97622901
1314890041.55635262,0.17971738,-0.12138426,-0.97620056
1314890041.60838294,0.17968477,-0.12153595,-0.97618768
1314890041.65935135,0.17967899,-0.12145673,-0.97619861
1314890041.70736909,0.17968127,-0.12153348,-0.97618864
1314890041.75935507,0.17951539,-0.12165252,-0.97620433
1314890041.80736279,0.17935163,-0.12159969,-0.97624101
1314890041.86034012,0.17954249,-0.12169025,-0.97619464
1314890041.90777254,0.17934653,-0.12141914,-0.97626442
1314890041.95634675,0.17924206,-0.12139981,-0.97628601
1314890042.00839043,0.17932900,-0.12097760,-0.97632245
1314890042.05633068,0.17951700,-0.12099174,-0.97628615
1314890042.10840225,0.17970102,-0.12136567,-0.97620588
1314890042.15923214,0.17978679,-0.12127121,-0.97620183
1314890042.20836926,0.17977734,-0.12124875,-0.97620636
1314890042.24733472,0.17960943,-0.12128632,-0.97623260
1314890042.30854893,0.17974706,-0.12148830,-0.97618215
1314890042.35633492,0.17929475,-0.12130384,-0.97628826
1314890042.40828562,0.17905393,-0.12126440,-0.97633736
1314890042.45534587,0.17899998,-0.12130818,-0.97634181
1314890042.49635887,0.17895813,-0.12127991,-0.97635299
1314890042.55536127,0.17900368,-0.12143970,-0.97632478
1314890042.60823298,0.17895222,-0.12135181,-0.97634515
1314890042.65529895,0.17907417,-0.12112259,-0.97635125
1314890042.70850635,0.17898155,-0.12108081,-0.97637341
1314890042.75931430,0.17892542,-0.12114804,-0.97637536
1314890042.80719995,0.17864863,-0.12147210,-0.97638578
1314890042.85930610,0.17843103,-0.12161433,-0.97640787
1314890042.90830612,0.17849973,-0.12158716,-0.97639869
1314890042.95929170,0.17846259,-0.12168143,-0.97639374
1314890043.00723958,0.17844436,-0.12188618,-0.97637153
1314890043.05629778,0.17853685,-0.12201680,-0.97633831
1314890043.10743904,0.17849096,-0.12203234,-0.97634476
1314890043.15929365,0.17851111,-0.12224553,-0.97631440
1314890043.20839190,0.17858949,-0.12225979,-0.97629828
1314890043.24731874,0.17853625,-0.12256955,-0.97626918
1314890043.30733252,0.17863266,-0.12263374,-0.97624348
1314890043.35921788,0.17886995,-0.12297782,-0.97615675
1314890043.40817642,0.17887796,-0.12290419,-0.97616455
1314890043.45931745,0.17881179,-0.12274677,-0.97619648
1314890043.50733161,0.17890270,-0.12255684,-0.97620369
1314890043.55930567,0.17901286,-0.12285723,-0.97614574
1314890043.60721588,0.17896835,-0.12262787,-0.97618274
1314890043.65624738,0.17851558,-0.12272659,-0.97625323
1314890043.70825481,0.17868981,-0.12270936,-0.97622352
1314890043.75624943,0.17866875,-0.12266813,-0.97623256
1314890043.80802774,0.17897400,-0.12264647,-0.97617937
1314890043.85602307,0.17901119,-0.12245384,-0.97619673
1314890043.90790296,0.17924051,-0.12240968,-0.97616019
1314890043.95935178,0.17926631,-0.12228244,-0.97617140
1314890044.00793004,0.17921739,-0.12231316,-0.97617653
1314890044.05624986,0.17962035,-0.12279952,-0.97604140
1314890044.10733819,0.17976456,-0.12286286,-0.97600687
1314890044.15588331,0.17990596,-0.12291215,-0.97597462
1314890044.20788217,0.18002153,-0.12290376,-0.97595436
1314890044.25576425,0.17995381,-0.12288413,-0.97596932
1314890044.30732107,0.17932743,-0.12244448,-0.97613986
1314890044.35575485,0.17924086,-0.12253839,-0.97614397
1314890044.40835047,0.17930684,-0.12212035,-0.97618424
1314890044.45634794,0.17919639,-0.12207134,-0.97621066
1314890044.50733685,0.17926808,-0.12202095,-0.97620379
1314890044.55566144,0.17930953,-0.12220678,-0.97617293
1314890044.60835600,0.17946579,-0.12221333,-0.97614340
1314890044.65931845,0.17937472,-0.12196235,-0.97619153
1314890044.70725393,0.17947285,-0.12178214,-0.97619599
1314890044.75630236,0.17953261,-0.12185379,-0.97617606
1314890044.80756664,0.17984540,-0.12209691,-0.97608810
1314890044.85934448,0.18005069,-0.12219969,-0.97603739
1314890044.90835261,0.18000268,-0.12226946,-0.97603751
1314890044.95931506,0.17989402,-0.12235232,-0.97604716
1314890045.00822878,0.17961643,-0.12239283,-0.97609320
1314890045.05934215,0.18000799,-0.12278124,-0.97597228
1314890045.10832763,0.17995557,-0.12286448,-0.97597147
1314890045.15622592,0.18011077,-0.12285646,-0.97594385
1314890045.20725560,0.18000228,-0.12278366,-0.97597303
1314890045.25539351,0.17989691,-0.12285373,-0.97598364
1314890045.30740619,0.17976516,-0.12304149,-0.97598426
1314890045.35622811,0.17986832,-0.12317280,-0.97594869
1314890045.40744162,0.17987803,-0.12305892,-0.97596127
1314890045.45614791,0.17962769,-0.12312968,-0.97599845
1314890045.50738120,0.17966483,-0.12319956,-0.97598280
1314890045.55521584,0.17999407,-0.12329024,-0.97591068
1314890045.60834861,0.18010136,-0.12332101,-0.97588700
1314890045.65625215,0.17984744,-0.12334508,-0.97593078
1314890045.70721102,0.17975130,-0.12319724,-0.97596717
1314890045.75524735,0.17971291,-0.12323062,-0.97597002
1314890045.80731821,0.17980639,-0.12344303,-0.97592596
1314890045.86173153,0.18013093,-0.12358698,-0.97584789
1314890045.90837717,0.18024777,-0.12362716,-0.97582123
1314890045.95622945,0.18008901,-0.12367141,-0.97584493
1314890046.00724792,0.18003574,-0.12370105,-0.97585100
1314890046.05922198,0.18080000,-0.12420726,-0.97564538
1314890046.10819888,0.18084300,-0.12420157,-0.97563814
